Epoch 2009 July 28.0 TT = JDT 2455040.5
T 2009 Aug. 6.81173 TT MPC
q 1.9499519 (2000.0) P Q
n 0.10772910 Peri. 13.09946 +0.49490185 -0.85885046
a 4.3743551 Node 47.41562 +0.78019802 +0.37226364
e 0.5542310 Incl. 10.33498 +0.38257446 +0.35184608
P 9.15